KTXEAGLE7 Weather Reports


time (UTC)temp
C
wind
direction
speed
KPH
gust
KPH
rain 1hr
cm
rain 24hr
cm
rain mn
cm
humidity
%
barometer
mb
20260503191550 24 135 14.5 20.9 0.00 0.00 0.00 44 1021.9
20260503190048 24 158 12.9 22.5 0.00 0.00 0.00 46 1022.0
20260503184558 23 213 8.0 17.7 0.00 0.00 0.00 46 1022.3
20260503183056 23 162 8.0 14.5 0.00 0.00 0.00 52 1022.7
20260503181545 23 128 3.2 19.3 0.00 0.00 0.00 49 1022.9
20260503180044 23 85 9.7 14.5 0.00 0.00 0.00 50 1023.1
20260503174543 23 158 9.7 19.3 0.00 0.00 0.00 54 1023.3
20260503173042 23 155 6.4 19.3 0.00 0.00 0.00 54 1023.4
20260503171538 23 207 6.4 14.5 0.00 0.00 0.00 52 1023.6
20260503081549 16 346 0.0 0.0 0.00 0.00 0.00 79 1021.6
20260503071530 16 346 0.0 0.0 0.00 0.00 0.00 77 1022.0
20260503054519 17 346 0.0 0.0 0.00 0.00 0.00 76 1021.7
20260503053018 17 346 0.0 0.0 0.00 0.00 0.00 76 1021.9
20260503051516 17 348 0.0 0.0 0.00 0.00 0.00 76 1021.8
20260503050026 17 348 0.0 4.8 0.00 0.00 0.00 75 1021.6
20260503044512 17 339 0.0 0.0 0.00 0.00 0.00 74 1021.6
20260503043016 17 339 0.0 0.0 0.00 0.00 0.00 75 1021.6
20260503041510 17 339 0.0 0.0 0.00 0.00 0.00 77 1021.7
20260503040010 17 339 0.0 0.0 0.00 0.00 0.00 77 1021.6
20260503034510 17 339 0.0 0.0 0.00 0.00 0.00 76 1021.6
20260503033009 18 339 0.0 0.0 0.00 0.00 0.00 77 1021.4
20260503031509 18 339 0.0 0.0 0.00 0.00 0.00 78 1021.3
20260503030008 18 261 0.0 0.0 0.00 0.00 0.00 77 1021.0
20260503024509 18 261 0.0 0.0 0.00 0.00 0.00 76 1020.8
20260503023008 18 261 0.0 0.0 0.00 0.00 0.00 76 1020.8
20260503021508 18 261 0.0 0.0 0.00 0.00 0.00 77 1020.6
20260503020007 18 261 0.0 0.0 0.00 0.05 0.00 75 1020.7
20260503014508 19 261 0.0 0.0 0.00 0.05 0.00 74 1020.2
20260503013018 20 261 0.0 0.0 0.00 0.05 0.00 71 1020.4
20260503011505 20 261 0.0 0.0 0.00 0.05 0.00 69 1020.1
20260503010004 21 261 0.0 1.6 0.00 0.20 0.00 66 1020.0
20260503004504 22 338 1.6 4.8 0.00 0.20 0.00 62 1019.8
20260503003002 22 337 1.6 6.4 0.00 0.20 0.00 60 1019.8
20260503001501 22 5 3.2 9.7 0.00 0.20 0.00 56 1019.7
20260503000109 22 84 6.4 16.1 0.00 0.20 0.00 54 1019.7
20260502234616 22 25 6.4 16.1 0.00 0.66 0.00 56 1019.6
20260502233110 22 20 6.4 17.7 0.00 0.66 0.00 54 1019.3
20260502231610 23 56 6.4 17.7 0.00 0.66 0.00 54 1019.4
20260502230056 22 315 6.4 17.7 0.00 0.66 0.00 54 1019.4
20260502224554 23 56 6.4 19.3 0.00 1.12 0.00 57 1019.4
20260502223055 23 335 6.4 24.1 0.00 1.12 0.00 54 1019.4
20260502221601 22 74 6.4 25.7 0.00 1.12 0.00 54 1019.3
20260502220050 23 60 9.7 24.1 0.00 1.12 0.00 54 1019.3
20260502214554 23 28 9.7 20.9 0.00 1.12 0.00 56 1019.4
20260502213053 22 330 8.0 24.1 0.00 1.12 0.00 56 1019.5
20260502211548 22 92 3.2 22.5 0.00 1.12 0.00 57 1019.7
20260502210045 22 26 8.0 22.5 0.00 1.68 0.00 56 1019.8
20260502204550 22 40 6.4 24.1 0.00 1.68 0.00 57 1020.1
20260502203053 22 5 8.0 25.7 0.00 1.68 0.00 56 1020.1
20260502201544 22 34 11.3 24.1 0.00 1.68 0.00 56 1020.3
20260502200042 22 321 9.7 20.9 0.00 1.78 0.00 56 1020.5
20260502194608 22 13 6.4 22.5 0.00 1.78 0.00 58 1020.5
20260502193037 21 331 6.4 24.1 0.00 1.78 0.00 63 1020.6